Globalstar M029

operational
NORAD ID: 25963 Int'l Des: 1999-062 Owner: GLOBT Country: US Constellation: globalstar
LEOCIRCULAR

About Globalstar M029

Description loading...

Live Position

Loading 3D Globe...

Upcoming Passes

Altitude History

Altitude vs Time

uPlot chart will show altitude changes over time

Two-Line Element Set

1 25963U 99062C 26062.07533047 -.00000058 00000-0 35229-3 0 9994
2 25963 51.9792 114.6016 0002243 254.3949 117.7357 11.99908685200207
Epoch: Mar 3, 2026 • Age: 13 hours

Current Status

Altitude 1691.0 km
Velocity 7.03 km/s
Sub-Earth Point -35.78°S, 28.88°W
Launch Date Nov 22, 1999
Age 26.2 years
Type communications

Technical Details

Classification Payload
Mass 450.00 kg
Dry Mass 380.00 kg
Total Mass 450.00 kg
Length 1.50 m
Diameter 0.60 m
Span 12.00 m
Shape Box + 2 Pan
Manufacturer LOR
Bus Type LS-400
Phase Status In Orbit
Owner/State GLOBT/US

Large Constellations

Loading constellations...